Home   Weather   Ottawa   Past weeks

Flag for Canada Past Weather in Ottawa, Ontario, Canada — Yesterday and Last 2 Weeks

Now
57 °F

Partly sunny.


Feels Like: 53 °F
Forecast: N/A
Wind: 22 mph from North

Location: Ottawa Int'L. Ont.

Current Time: Apr 23, 2017 at 7:28:21 pm

Latest Report: Apr 23, 2017 at 7:00 pm


Visibility: 15 mi

Pressure: 29.98 "Hg

Humidity: 39%

Dew Point: 32 °F

Location of OttawaLocation

Past Weather in Ottawa — Graph

°F

Ottawa Temperature Yesterday

Maximum temperature yesterday: 52 °F (at 4:00 pm)
Minimum temperature yesterday: 41 °F (at 7:00 am)
Average temperature yesterday: 45 °F

High & Low Weather Summary for the Past Weeks

 TemperatureHumidityPressure
High75 °F (Apr 10, 3:00 pm)100% (Apr 11, 1:00 am)30.50 "Hg (Apr 11, 1:00 am)
Low27 °F (Apr 18, 5:00 am)18% (Apr 14, 2:00 pm)29.60 "Hg (Apr 16, 4:00 pm)
Average47 °F72%30.06 "Hg
* Reported Apr 8 6:00 pm — Apr 23 6:00 pm, Ottawa, Weather by CustomWeather, © 2017

Note: Actual official high and low records may vary slightly from our data, if they occured in-between our weather recording intervals... More about our weather records

Advertising

Ottawa Weather History for the Previous 24 Hours

Scroll right to see more
 ConditionsComfort  
Time TempWeatherWind HumidityBarometerVisibility
6:00 pm
Sun, Apr 23
63 °FPartly sunny.15 mph39%29.92 "Hg15 mi
5:00 pm64 °FPartly sunny.17 mph32%29.91 "Hg15 mi
4:00 pm66 °FScattered clouds.18 mph32%29.92 "Hg15 mi
3:00 pm64 °FPartly sunny.18 mph34%29.95 "Hg15 mi
2:00 pm64 °FOvercast.20 mph34%29.98 "Hg15 mi
1:00 pm63 °FPartly sunny.17 mph37%30.01 "Hg15 mi
12:00 pm61 °FPartly sunny.13 mph42%30.03 "Hg15 mi
11:00 am57 °FPartly sunny.14 mph44%30.05 "Hg15 mi
10:00 am54 °FPartly sunny.14 mph51%30.06 "Hg15 mi
9:00 am48 °FPartly sunny.8 mph66%30.08 "Hg15 mi
8:00 am41 °FPassing clouds.3 mph81%30.09 "Hg15 mi
7:00 am36 °FPassing clouds.3 mph93%30.08 "Hg15 mi
6:00 am32 °FFog.3 mph100%30.07 "Hg15 mi
5:00 am30 °FClear.2 mph100%30.06 "Hg15 mi
4:00 am32 °FClear.3 mph100%30.07 "Hg15 mi
3:00 am34 °FClear.No wind93%30.07 "Hg15 mi
2:00 am34 °FClear.No wind93%30.08 "Hg15 mi
1:32 am36 °FClear.No wind87%30.09 "Hg15 mi
1:00 am37 °FClear.3 mph75%30.09 "Hg15 mi
12:00 am41 °FPassing clouds.5 mph70%30.09 "Hg15 mi
11:00 pm
Sat, Apr 22
45 °FPassing clouds.5 mph61%30.09 "Hg15 mi
10:00 pm43 °FPassing clouds.5 mph66%30.07 "Hg15 mi
9:00 pm43 °FPassing clouds.6 mph66%30.06 "Hg15 mi
8:00 pm48 °FPassing clouds.7 mph54%30.04 "Hg15 mi
7:00 pm52 °FScattered clouds.12 mph47%30.03 "Hg15 mi
Weather by CustomWeather, © 2017

See weather overviewHow to use our weather pages